Погода в Красном Текстильщике

Россия / Саратовская область     51°21′36″N   45°50′02″E
темп.,
°C
ветер,
м/с
пор.,
м/с
влажн.,
%
обл.,
%
осадки,
мм/ч
давл.,
гПа
погр.,
м
20 июня, вс
вс2001:00+17ссв11730 0.0 102411
04:00+16ссв22740 0.0 102411
07:00+17св12750 0.0 102441
10:00+18в22750 0.0 1024117
13:00+20ссв12670 0.0 1024202
16:00+23ссв12570 0.0 1023231
19:00+24ссз12560 0.0 102175
22:00+21ссз22582 0.0 102111
21 июня, пн
пн2101:00+19ссв11655 0.0 102211
04:00+18св22710 0.0 102211
07:00+18св2279100 0.0 102245
10:00+19всв22785 0.0 1023115
13:00+22ссв1271100 0.0 1022227
16:00+26ссв2357100 0.0 1021373
19:00+25ссв336690 0.0 102037
22:00+22ссв33696 0.0 102111
22 июня, вт
вт2201:00+20св33785 0.0 102114
04:00+19ссв33843 0.0 102115
07:00+19св34832 0.0 102267
10:00+21св34790 0.0 1022115
13:00+24всв12665 0.0 1022256
16:00+27сз125293 0.0 1021435
19:00+27ссв23510 0.0 102021
22:00+23ссв22630 0.0 102011
23 июня, ср
ср2301:00+21с22690 0.0 102011
04:00+19ссв33743 0.0 102113
07:00+19св33795 0.0 102147
10:00+21всв23733 0.0 102195
13:00+24св23605 0.0 1021198
16:00+27ссв22514 0.0 1020319
19:00+27с22575 0.0 102033
22:00+24с33616 0.0 102013
24 июня, чт
чт2401:00+21ссв337153 0.0 102116
04:00+20св337846 0.0 102119
07:00+20св2380100 0.0 102144
10:00+21св227544 0.0 1021104
13:00+24ссв2266100 0.0 1021188
16:00+27с225478 0.0 1020355
19:00+28сз2256100 0.0 101962
22:00+25сз33613 0.0 101911